Precipitable_Water
0.78 0.85 0.91 0.96 1.01 1.05 1.10 1.18 1.27 1.36 1.40 1.40 1.39 1.40 1.38 1.35 1.34 1.29 1.26 1.25 1.21 1.18 1.15 1.11 1.08 1.10 1.10 1.08 1.07 1.04 1.02 1.05 0.93 0.97 1.07 1.14 1.17 1.17 1.24 1.23 1.26 1.21 1.19
0.77 0.83 0.89 0.94 0.99 0.99 1.01 1.05 1.13 1.20 1.28 1.30 1.33 1.35 1.34 1.29 1.28 1.25 1.21 1.21 1.15 1.10 1.09 1.08 1.04 1.08 1.06 1.05 1.06 1.04 1.08 1.13 1.06 0.99 1.12 1.14 1.14 1.13 1.11 1.09 1.09 1.10 1.02
0.77 0.82 0.86 0.89 0.92 0.94 1.01 1.07 1.09 1.08 1.12 1.18 1.20 1.21 1.22 1.21 1.19 1.17 1.16 1.11 1.10 1.06 1.04 1.02 1.04 1.05 1.03 1.06 1.07 1.08 1.10 1.10 1.07 0.99 0.97 1.02 0.99 1.03 1.01 0.96 0.93 0.97 0.89
0.78 0.83 0.84 0.88 0.89 0.91 0.96 1.03 1.09 1.10 1.10 1.11 1.11 1.09 1.10 1.11 1.09 1.07 1.06 1.05 1.07 1.07 1.06 1.05 1.05 1.05 1.05 1.04 1.00 0.99 0.98 0.95 0.95 0.93 0.89 0.86 0.91 0.92 0.87 0.83 0.78 0.81 0.77
0.78 0.80 0.84 0.89 0.90 0.92 0.92 0.96 1.03 1.06 1.06 1.07 1.08 1.11 1.14 1.11 1.12 1.11 1.09 1.09 1.07 1.05 1.06 1.04 1.00 0.97 0.96 0.94 0.89 0.87 0.88 0.87 0.90 0.82 0.79 0.83 0.80 0.78 0.76 0.75 0.69 0.67 0.67
0.82 0.83 0.87 0.89 0.90 0.90 0.92 0.92 0.95 0.98 1.00 1.00 1.01 1.01 0.99 1.00 1.05 1.12 1.14 1.10 1.05 1.00 0.97 0.96 0.94 0.89 0.87 0.88 0.95 0.92 0.91 0.81 0.84 0.84 0.82 0.76 0.73 0.72 0.69 0.64 0.59 0.54 0.50
0.88 0.90 0.90 0.90 0.90 0.93 0.95 0.96 0.93 0.89 0.91 0.88 0.89 0.91 0.91 0.94 0.99 1.01 1.03 0.99 0.95 0.93 0.91 0.87 0.85 0.86 0.86 0.86 0.84 0.85 0.86 0.84 0.85 0.81 0.73 0.67 0.64 0.62 0.60 0.53 0.48 0.44 0.39
1.03 0.95 0.96 0.95 0.92 0.95 0.97 0.93 0.92 0.91 0.87 0.87 0.89 0.90 0.91 0.91 0.95 0.98 1.00 0.96 0.92 0.88 0.86 0.87 0.83 0.83 0.80 0.84 0.82 0.78 0.80 0.80 0.74 0.68 0.64 0.58 0.54 0.49 0.43 0.38 0.33 0.29 0.26
1.13 1.10 1.05 1.03 0.97 0.94 0.91 0.90 0.91 0.90 0.88 0.88 0.89 0.88 0.88 0.87 0.90 0.94 0.95 0.91 0.89 0.85 0.83 0.83 0.80 0.78 0.83 0.80 0.75 0.71 0.65 0.59 0.58 0.52 0.45 0.41 0.38 0.35 0.31 0.27 0.22 0.20 0.17
1.09 1.10 1.13 1.07 1.01 0.98 0.96 0.93 0.92 0.93 0.91 0.91 0.91 0.92 0.92 0.91 0.91 0.94 0.93 0.89 0.84 0.79 0.78 0.76 0.74 0.76 0.75 0.72 0.66 0.56 0.45 0.42 0.38 0.34 0.32 0.30 0.27 0.26 0.24 0.22 0.19 0.15 0.14
1.10 1.11 1.13 1.10 1.06 1.05 1.00 0.97 0.98 0.96 0.94 0.91 0.89 0.90 0.90 0.90 0.89 0.87 0.87 0.85 0.82 0.77 0.72 0.74 0.73 0.70 0.62 0.52 0.46 0.41 0.37 0.34 0.31 0.28 0.24 0.22 0.21 0.19 0.18 0.17 0.16 0.13 0.11
1.09 1.07 1.07 1.07 1.07 1.04 1.00 0.96 0.95 0.94 0.91 0.90 0.88 0.88 0.88 0.85 0.83 0.82 0.81 0.83 0.80 0.73 0.69 0.67 0.63 0.54 0.47 0.44 0.41 0.37 0.31 0.27 0.25 0.22 0.20 0.19 0.18 0.15 0.14 0.13 0.12 0.12 0.12
1.01 0.99 1.01 1.03 1.04 1.02 1.00 0.99 0.95 0.94 0.90 0.88 0.84 0.81 0.78 0.78 0.78 0.75 0.76 0.74 0.71 0.67 0.62 0.56 0.52 0.47 0.41 0.34 0.31 0.29 0.27 0.24 0.22 0.20 0.16 0.14 0.13 0.13 0.12 0.11 0.11 0.11 0.11
0.87 0.85 0.86 0.87 0.90 0.90 0.91 0.89 0.85 0.84 0.81 0.79 0.75 0.74 0.73 0.70 0.70 0.70 0.68 0.62 0.60 0.55 0.49 0.45 0.40 0.36 0.33 0.31 0.29 0.27 0.24 0.19 0.15 0.13 0.12 0.12 0.12 0.11 0.10 0.10 0.09 0.09 0.08
0.77 0.78 0.77 0.77 0.79 0.80 0.82 0.83 0.81 0.80 0.76 0.73 0.71 0.66 0.66 0.62 0.63 0.65 0.60 0.52 0.46 0.43 0.41 0.38 0.33 0.30 0.29 0.26 0.21 0.17 0.16 0.14 0.12 0.12 0.11 0.10 0.09 0.09 0.09 0.09 0.09 0.08 0.08
0.64 0.65 0.64 0.65 0.69 0.70 0.73 0.71 0.72 0.70 0.69 0.71 0.69 0.67 0.65 0.64 0.60 0.50 0.45 0.42 0.41 0.36 0.31 0.29 0.26 0.21 0.18 0.16 0.14 0.13 0.12 0.11 0.11 0.10 0.09 0.09 0.08 0.08 0.08 0.08 0.08 0.08 0.08
0.60 0.59 0.59 0.59 0.61 0.63 0.59 0.58 0.57 0.64 0.62 0.65 0.63 0.58 0.53 0.47 0.44 0.42 0.40 0.36 0.34 0.29 0.22 0.19 0.17 0.15 0.14 0.13 0.12 0.11 0.10 0.10 0.10 0.09 0.09 0.08 0.08 0.08 0.08 0.08 0.08 0.08 0.07
0.60 0.60 0.61 0.59 0.59 0.58 0.57 0.58 0.58 0.56 0.52 0.50 0.48 0.45 0.43 0.43 0.40 0.38 0.32 0.26 0.21 0.20 0.17 0.16 0.15 0.14 0.12 0.11 0.10 0.09 0.09 0.09 0.09 0.09 0.08 0.08 0.08 0.08 0.07 0.07 0.07 0.07 0.07
0.61 0.58 0.58 0.58 0.57 0.56 0.55 0.55 0.53 0.52 0.46 0.43 0.42 0.40 0.38 0.34 0.30 0.26 0.22 0.19 0.17 0.16 0.15 0.14 0.13 0.12 0.11 0.10 0.09 0.09 0.09 0.09 0.08 0.08 0.08 0.08 0.08 0.08 0.08 0.08 0.07 0.07 0.07
0.60 0.59 0.57 0.57 0.56 0.54 0.53 0.49 0.42 0.37 0.34 0.33 0.31 0.27 0.24 0.21 0.19 0.19 0.17 0.16 0.15 0.14 0.13 0.12 0.11 0.11 0.10 0.10 0.09 0.09 0.08 0.08 0.08 0.08 0.08 0.08 0.08 0.08 0.08 0.08 0.08 0.07 0.07
0.57 0.55 0.54 0.54 0.51 0.42 0.36 0.35 0.34 0.32 0.28 0.24 0.23 0.22 0.20 0.18 0.17 0.16 0.15 0.14 0.13 0.12 0.12 0.11 0.11 0.10 0.10 0.10 0.09 0.08 0.08 0.08 0.08 0.09 0.08 0.09 0.09 0.08 0.09 0.09 0.08 0.08 0.08
0.54 0.52 0.47 0.40 0.37 0.35 0.33 0.30 0.26 0.23 0.20 0.19 0.19 0.19 0.18 0.16 0.15 0.14 0.13 0.13 0.13 0.12 0.11 0.11 0.11 0.10 0.10 0.09 0.09 0.08 0.08 0.08 0.08 0.09 0.09 0.09 0.09 0.09 0.09 0.09 0.09 0.08 0.08
0.44 0.38 0.34 0.31 0.29 0.27 0.26 0.24 0.21 0.19 0.19 0.18 0.18 0.17 0.16 0.15 0.14 0.13 0.13 0.12 0.12 0.11 0.11 0.11 0.11 0.10 0.10 0.09 0.09 0.09 0.09 0.09 0.09 0.09 0.09 0.09 0.09 0.10 0.10 0.09 0.09 0.08 0.08
0.33 0.31 0.30 0.29 0.27 0.24 0.22 0.20 0.19 0.18 0.18 0.17 0.16 0.15 0.14 0.14 0.13 0.13 0.12 0.11 0.11 0.11 0.11 0.10 0.10 0.09 0.09 0.09 0.09 0.10 0.10 0.10 0.10 0.09 0.09 0.09 0.10 0.10 0.10 0.10 0.09 0.09 0.08
0.32 0.29 0.27 0.25 0.23 0.21 0.20 0.19 0.18 0.17 0.16 0.16 0.15 0.14 0.14 0.13 0.12 0.12 0.11 0.11 0.10 0.10 0.09 0.09 0.09 0.09 0.09 0.09 0.09 0.09 0.10 0.10 0.09 0.09 0.09 0.10 0.10 0.11 0.11 0.10 0.10 0.09 0.09
0.26 0.24 0.22 0.22 0.20 0.19 0.18 0.18 0.17 0.16 0.16 0.15 0.14 0.14 0.13 0.12 0.12 0.11 0.11 0.10 0.09 0.09 0.09 0.09 0.09 0.09 0.09 0.09 0.09 0.10 0.09 0.09 0.09 0.09 0.10 0.10 0.11 0.11 0.11 0.11 0.10 0.09 0.09
Wind_Speed
12 11 10 9 9 9 9 10 12 16 19 22 26 32 33 29 29 28 26 27 27 26 26 26 27 27 26 26 28 29 30 31 33 33 34 35 35 37 37 38 40 38 39
14 12 11 10 11 10 10 11 12 14 16 19 20 24 27 26 24 25 25 24 24 25 25 26 26 26 27 29 30 31 32 32 33 35 34 34 33 32 34 36 36 39 43
15 14 13 12 11 12 12 13 13 13 14 16 18 20 22 23 23 22 22 22 22 23 23 24 25 27 28 29 29 30 30 31 32 33 34 33 34 37 38 39 41 43 46
18 16 14 13 12 12 13 14 15 15 15 15 17 18 19 20 21 22 22 22 22 22 23 24 25 27 27 29 29 30 31 31 32 33 34 36 37 37 39 41 42 45 48
20 18 16 15 14 13 13 14 16 16 16 16 16 17 18 19 20 23 23 23 23 23 23 23 23 23 24 26 27 28 29 31 32 33 34 34 36 38 39 42 45 47 47
22 20 18 16 15 15 15 15 16 16 17 17 17 17 17 17 19 19 21 22 22 22 21 22 23 23 23 25 27 27 27 29 31 33 35 35 38 40 43 45 46 46 46
24 22 21 19 17 17 17 16 16 16 17 16 16 17 16 16 17 18 19 19 20 21 22 23 24 25 23 24 25 27 27 28 30 30 33 36 38 42 43 45 46 47 49
26 25 23 21 19 18 17 16 16 16 16 16 16 16 15 15 16 17 19 19 19 20 21 21 22 23 24 24 26 27 27 28 32 33 34 36 39 42 43 45 48 50 51
25 25 25 24 20 19 18 17 17 16 16 16 16 16 16 16 17 17 18 19 19 19 21 22 22 22 24 25 27 28 27 31 32 33 35 38 40 43 45 48 50 52 53
22 22 22 23 22 21 20 19 18 17 17 17 16 16 17 17 17 18 19 20 19 20 20 21 21 21 24 25 27 28 31 33 35 37 39 41 43 46 48 50 52 54 55
21 20 21 22 23 23 22 21 20 20 19 18 17 18 18 19 19 19 19 20 19 19 20 21 22 23 25 26 28 31 33 35 37 39 41 43 45 48 49 51 52 54 56
19 19 19 20 22 21 22 22 22 21 22 21 20 19 20 20 20 20 20 21 20 19 21 23 24 23 24 28 32 33 35 37 39 40 42 44 46 48 49 52 54 55 57
19 19 19 20 21 22 22 22 22 21 23 24 22 22 20 21 20 19 17 17 20 21 21 21 22 26 28 31 32 34 36 37 38 40 42 44 47 49 52 53 55 56 58
20 19 19 19 20 21 21 23 22 24 23 24 23 25 21 20 21 20 19 20 21 21 21 24 26 27 29 30 32 34 35 36 38 40 43 46 48 50 52 54 56 58 59
21 21 21 21 21 20 20 22 22 22 22 23 20 22 19 18 22 21 18 20 20 21 23 24 25 27 28 30 31 33 34 37 39 42 44 47 49 51 53 55 57 58 59
22 22 22 22 21 20 19 18 17 18 17 19 16 16 17 16 15 16 17 18 20 21 22 23 24 25 27 29 31 33 36 38 40 42 45 48 50 53 55 56 57 57 57
19 19 20 20 20 20 18 19 18 16 14 15 16 15 14 15 16 16 17 18 18 20 21 22 23 25 27 29 32 34 36 39 41 44 46 49 52 54 55 55 56 56 55
17 17 18 18 18 18 17 17 17 17 16 15 13 13 13 14 14 16 17 17 18 19 21 22 24 26 28 30 32 35 37 40 42 45 48 50 52 53 54 54 54 53 51
15 16 16 17 16 15 14 14 14 15 15 14 14 13 13 13 14 15 16 18 19 20 22 23 25 27 29 31 34 36 39 41 43 45 47 49 51 52 52 52 51 48 46
12 13 13 14 14 13 13 12 12 12 11 11 11 11 12 13 14 15 16 18 19 21 23 25 26 29 31 33 35 38 40 42 44 45 46 48 49 49 50 49 46 43 39
11 12 13 12 11 11 10 10 10 9 9 9 10 10 12 13 14 15 17 19 21 23 25 26 28 30 32 34 36 39 40 42 43 44 45 46 47 47 47 45 41 37 35
10 10 11 10 10 10 9 8 8 8 8 8 9 11 13 14 15 17 19 21 23 25 26 28 30 31 33 35 37 39 40 41 42 43 44 44 45 45 44 40 36 34 31
10 10 9 9 8 8 8 9 9 9 10 10 12 13 15 16 18 19 21 24 25 27 28 30 31 33 34 36 38 39 40 40 41 42 42 43 43 41 39 36 33 30 28
10 10 9 9 9 9 9 10 10 11 11 12 14 15 17 18 20 21 23 25 27 28 29 31 32 34 36 37 38 38 39 40 40 40 41 40 39 37 35 32 30 27 24
9 9 10 10 10 11 11 12 12 13 14 15 16 17 19 20 22 24 25 27 28 30 31 32 34 35 36 36 37 38 38 38 39 39 38 36 34 33 32 30 27 23 20
10 10 10 11 11 12 13 13 14 15 16 17 18 20 21 23 24 26 27 28 30 31 32 33 34 35 36 36 36 36 37 38 38 36 34 32 30 30 29 27 24 20 16
Wind_Direction
209 206 201 200 195 191 189 184 182 184 190 197 202 206 210 218 223 223 222 224 227 230 236 240 243 249 255 260 266 269 272 273 275 277 278 279 281 281 281 284 282 283 285
208 205 203 200 199 197 195 187 184 184 188 191 194 201 201 205 213 216 219 221 227 234 239 242 248 253 258 265 269 271 273 275 277 279 281 282 282 284 284 287 285 286 290
206 206 205 203 200 202 199 194 189 186 188 191 194 199 203 208 213 215 220 224 231 237 244 248 253 259 264 267 271 274 276 278 279 281 282 283 285 285 286 288 290 287 291
208 208 207 206 202 200 199 198 197 196 194 196 200 202 208 213 218 223 227 232 238 244 250 255 260 264 266 270 274 276 278 279 281 283 284 286 284 288 288 291 292 292 294
210 211 210 209 209 205 201 200 203 204 206 206 207 212 217 222 227 230 234 239 242 247 254 258 263 268 273 274 275 278 280 282 282 287 288 287 286 290 294 295 296 296 295
212 214 214 212 212 211 210 207 208 209 213 215 217 218 222 227 232 233 235 239 244 248 253 259 265 270 275 278 279 284 283 286 286 288 286 290 291 292 293 297 298 298 297
215 216 216 216 216 215 213 214 212 211 213 216 218 219 224 230 232 234 236 242 248 254 258 263 267 271 274 279 284 287 287 291 293 291 292 292 293 297 297 298 299 299 298
218 218 217 218 217 216 216 214 214 214 214 215 217 222 227 234 235 238 242 247 252 257 261 262 268 273 276 280 287 292 292 294 294 294 296 297 298 300 300 300 300 299 299
219 218 216 216 216 216 216 216 216 215 216 219 224 228 233 239 243 245 248 252 253 259 265 269 271 277 280 284 291 290 291 297 299 299 300 301 302 303 304 302 303 302 301
218 217 216 215 216 217 218 219 220 221 223 226 230 235 239 244 247 251 253 253 256 261 267 272 277 279 283 290 291 294 297 299 299 299 300 301 303 304 305 305 304 304 303
218 218 218 219 218 221 222 223 224 226 228 232 235 240 247 252 254 255 255 256 254 262 270 273 275 283 286 290 296 297 297 300 302 302 302 303 304 305 306 306 306 305 305
221 221 223 223 223 223 223 223 227 230 232 236 239 244 251 253 255 256 257 256 248 270 273 276 277 285 290 291 297 299 300 301 303 304 305 306 306 307 307 307 307 307 306
226 228 229 228 227 227 229 228 234 237 243 238 239 244 252 253 254 257 250 257 270 274 275 274 279 287 292 297 300 302 303 304 305 306 307 308 308 309 309 309 309 309 309
232 232 232 231 230 233 234 237 239 241 244 242 248 244 245 253 252 251 255 263 273 272 279 281 285 291 296 298 301 303 306 307 309 310 310 310 311 311 312 312 311 311 310
234 235 236 236 235 236 240 241 243 245 245 238 243 250 238 251 251 242 263 269 275 275 285 290 292 295 298 301 305 308 309 311 312 312 313 314 314 314 314 313 313 312 312
237 238 237 235 233 234 231 235 235 235 239 229 240 244 252 250 245 261 268 272 277 284 289 293 295 299 304 306 308 310 312 313 315 315 316 316 316 316 316 315 315 314 314
231 232 229 228 226 225 232 230 233 215 231 240 247 245 254 244 256 266 273 279 287 290 295 298 301 304 307 309 311 313 314 315 316 317 318 318 319 318 318 317 317 316 316
226 223 221 221 221 221 223 222 226 232 240 239 240 241 250 252 261 272 280 287 293 298 300 301 304 307 309 312 313 315 316 317 318 319 320 320 321 321 320 320 320 319 319
210 211 212 212 213 213 214 217 220 223 226 233 241 250 259 264 274 284 290 292 296 300 303 306 308 310 312 314 316 317 318 319 320 320 322 323 323 324 324 324 323 322 323
182 183 188 192 194 196 206 213 222 225 231 239 255 266 271 277 286 291 292 296 301 303 306 308 310 311 313 315 317 318 319 320 321 322 323 324 325 327 327 327 326 326 326
180 183 185 191 196 202 211 221 226 236 247 259 268 276 282 286 290 294 297 301 304 306 307 308 311 313 314 315 317 318 320 321 322 323 324 326 327 328 329 329 329 328 328
182 184 194 200 212 219 225 229 234 245 254 266 276 285 289 294 296 299 301 303 305 307 309 310 311 313 315 316 318 319 320 321 322 323 325 327 328 329 330 330 330 330 331
195 197 200 209 215 220 229 239 248 255 263 272 279 286 292 294 298 300 303 305 307 308 309 310 311 313 315 316 318 319 320 321 322 324 325 327 328 330 331 331 331 332 333
206 207 215 223 230 235 242 249 256 264 271 280 285 290 293 296 299 301 304 307 308 310 310 311 312 313 315 316 317 319 320 321 323 325 325 326 328 330 332 332 332 332 333
219 224 230 236 241 246 251 257 264 269 276 282 287 291 294 298 301 303 305 308 309 309 310 311 312 313 314 315 317 318 320 322 323 324 325 326 328 331 332 333 332 333 333
232 237 244 249 253 254 258 263 269 274 279 284 289 293 296 299 300 303 305 307 309 310 311 312 312 313 313 315 316 317 319 321 322 324 325 326 328 331 333 333 332 332 331